Weather History for KPUB - June, 2014

Change the Weather History Date:

Tuesday, June 3, 2014

  Actual Average Record
Temperature  
Mean Temperature 76 °F 66 °F  
Max Temperature 97 °F 83 °F 100 °F (2006)
Min Temperature 54 °F 49 °F 37 °F (1919)
Degree Days  
Heating Degree Days 0 2  
Month to date heating degree days 0 6  
Since 1 June heating degree days 0 6  
Since 1 July heating degree days 5413 5619  
Cooling Degree Days 11 3  
Month to date cooling degree days 30 9  
Year to date cooling degree days 82 43  
Since 1 June cooling degree days 30 9  
Growing Degree Days 26 (Base 50)    
Moisture  
Dew Point 35 °F    
Average Humidity 47    
Maximum Humidity 89    
Minimum Humidity 5    
Precipitation  
Precipitation 0.00 in 0.05 in 1.64 in (1921)
Month to date precipitation T 0.14  
Year to date precipitation 4.20 4.63  
Snow  
Snow 0.00 in 0.00 in 0.00 in (2002)
Month to date snowfall 0.0 0.0  
Since 1 June snowfall 0.0 0.0  
Since 1 July snowfall 29.3 31.8  
Snow Depth 0.00 in    
Sea Level Pressure  
Sea Level Pressure 29.68 in    
Wind  
Wind Speed 11 mph (WSW)    
Max Wind Speed 35 mph    
Max Gust Speed 48 mph    
Visibility 10 miles    
Events      
T = Trace of Precipitation, MM = Missing Value Source: NWS Daily Summary

Daily Weather History Graph

Daily Weather History Graph

Search for Another Location

Airport or City:

Trip Planner

Search our weather history database for the weather conditions in past years. The results will help you decide how hot, cold, wet, or windy it might be!

Date:

Astronomy

Jun. 03, 2014 Rise Set
Actual Time 5:35 AM MDT 8:17 PM MDT
Civil Twilight 5:04 AM MDT 8:48 PM MDT
Nautical Twilight 4:25 AM MDT 9:27 PM MDT
Astronomical Twilight 3:41 AM MDT 10:11 PM MDT
Moon 10:58 AM MDT (6/3) No Moon Set
Length of Visible Light 15h 43m
Length of Day
14h 41m
Waxing Crescent, 30% of the Moon is Illuminated
Jun 3
Waxing Crescent
Jun 5
First Quarter
Jun 12
Full
Jun 19
Last Quarter
Jun 27
New

Hourly Weather History & Observations

Time (MDT) Temp. Dew Point Humidity Pressure Visibility Wind Dir Wind Speed Gust Speed Precip Events Conditions
12:53 AM 68.0 °F 55.0 °F 63% 29.77 in 10.0 mi SSE 8.1 mph - N/A   Clear
1:53 AM 62.1 °F 50.0 °F 65% 29.77 in 10.0 mi West 8.1 mph - N/A   Clear
2:53 AM 61.0 °F 52.0 °F 72% 29.76 in 10.0 mi West 12.7 mph - N/A   Clear
3:53 AM 59.0 °F 53.1 °F 81% 29.74 in 10.0 mi Calm Calm - N/A   Clear
4:53 AM 60.1 °F 54.0 °F 80% 29.75 in 10.0 mi SW 3.5 mph - N/A   Clear
5:53 AM 54.0 °F 50.0 °F 86% 29.76 in 10.0 mi West 6.9 mph - N/A   Clear
6:53 AM 61.0 °F 55.0 °F 81% 29.76 in 8.0 mi West 6.9 mph - N/A   Clear
7:53 AM 64.9 °F 55.9 °F 73% 29.75 in 9.0 mi West 5.8 mph - N/A   Clear
8:53 AM 71.1 °F 55.0 °F 57% 29.73 in 10.0 mi WNW 5.8 mph - N/A   Clear
9:53 AM 78.1 °F 50.0 °F 37% 29.70 in 10.0 mi Calm Calm - N/A   Clear
10:53 AM 82.9 °F 46.9 °F 28% 29.68 in 10.0 mi South 4.6 mph - N/A   Clear
11:53 AM 91.0 °F 34.0 °F 13% 29.63 in 10.0 mi SSW 10.4 mph - N/A   Clear
12:53 PM 93.9 °F 21.0 °F 7% 29.58 in 10.0 mi WSW 12.7 mph 23.0 mph N/A   Unknown
1:53 PM 95.0 °F 19.0 °F 6% 29.59 in 10.0 mi West 20.7 mph - N/A   Clear
2:53 PM 96.1 °F 18.0 °F 6% 29.57 in 10.0 mi West 25.3 mph 31.1 mph N/A   Clear
3:53 PM 93.9 °F 19.9 °F 7% 29.56 in 10.0 mi West 19.6 mph 31.1 mph N/A   Clear
4:53 PM 95.0 °F 16.0 °F 6% 29.55 in 10.0 mi SW 27.6 mph 35.7 mph N/A   Clear
5:53 PM 95.0 °F 17.1 °F 6% 29.56 in 10.0 mi WSW 28.8 mph 38.0 mph N/A   Clear
6:53 PM 93.0 °F 17.1 °F 6% 29.57 in 10.0 mi SW 20.7 mph 32.2 mph N/A   Clear
7:53 PM 89.1 °F 18.0 °F 7% 29.60 in 10.0 mi WSW 10.4 mph - N/A   Clear
8:53 PM 87.8 °F 19.4 °F 8% 29.82 in 3.0 mi West 12.7 mph - N/A   Haze
9:53 PM 75.9 °F 21.9 °F 13% 29.64 in 10.0 mi NNW 10.4 mph - N/A   Clear
10:53 PM 73.4 °F 21.2 °F 14% 29.84 in 10.0 mi NNW 9.2 mph - N/A   Clear
11:53 PM 72.0 °F 25.0 °F 17% 29.64 in 10.0 mi Variable 5.8 mph - N/A   Clear